Regional Weather Roundup
Issued by NWS

Home | Current Version | Previous Version | Text Only | Print | Product List | Glossary Off
Versions: 1 2 3 4 5 6 7 8 9 10 11 12 13 14 15 16 17 18 19 20 21 22 23 24 25 26 27 28 29 30 31 32 33 34 35 36 37 38 39 40 41 42 43 44 45 46 47 48 49 50

000
ASUS43 KFSD 041010
RWRSD

WEATHER ROUNDUP FOR SOUTH DAKOTA
NATIONAL WEATHER SERVICE SIOUX FALLS SD
500 AM CDT SAT JUL 04 2015

NOTE: "FAIR" INDICATES FEW OR NO CLOUDS BELOW 12,000 FEET WITH NO
SIGNIFICANT WEATHER AND/OR OBSTRUCTIONS TO VISIBILITY.


SDZ001>005-009-010-012>017-041100-
NORTHWEST AND NORTH CENTRAL SOUTH DAKOTA

CITY           SKY/WX    TMP DP  RH WIND       PRES   REMARKS
BUFFALO          N/A     63  59  87 SE5       29.81S
FAITH            N/A     64  60  87 SE14      29.87F
MOBRIDGE       PTCLDY    67  67 100 SE7       29.86S FOG
$$

SDZ012>016-024>037-041>051-057-063-072>074-041100-
SOUTHWEST AND SOUTH CENTRAL SOUTH DAKOTA

CITY           SKY/WX    TMP DP  RH WIND       PRES   REMARKS
RAPID CTY ARPT MOCLDY    63  59  87 E6        29.89F
PIERRE         PTCLDY    63  61  93 E3        29.88F
CUSTER         CLEAR     54  50  86 W3        30.04F
ELLSWORTH AFB  MOCLDY    67  59  74 S6        29.88F
PHILIP         MOCLDY    61  59  93 E6        29.88F FOG
PINE RIDGE     CLEAR     69  59  70 S17G26    29.92F
SPEARFISH      MOCLDY    72  55  56 NW3       29.90F
WINNER         FAIR      69  60  73 S16       29.91F
$$

SDZ004>011-016>023-039-040-041100-
NORTHEAST SOUTH DAKOTA

CITY           SKY/WX    TMP DP  RH WIND       PRES   REMARKS
ABERDEEN       CLEAR     63  62  97 S6        29.90S FOG
WATERTOWN      PTCLDY    64  61  90 S6        29.95S FOG
BROOKINGS      CLEAR     63  59  88 SE5       29.98F
SISSETON         N/A     61  59  93 S3        29.90F
$$

SDZ017-020-022-023-036>040-048>070-041100-
SOUTHEAST SOUTH DAKOTA

CITY           SKY/WX    TMP DP  RH WIND       PRES   REMARKS
SIOUX FALLS    CLEAR     63  59  87 SW3       29.97S
HURON          CLEAR     63  62  97 SE6       29.91F FOG
CHAMBERLAIN    CLEAR     62  62  98 CALM      29.92F
MITCHELL       CLEAR     64  63  96 SE7       29.94F FOG
YANKTON          N/A     59  57  94 E5        29.96S VSB 1/4
$$

ABBREVIATIONS USED IN REMARKS
   TC - TEMPERATURE IN CELSIUS
  WCI - WIND CHILL INDEX
   HX - HEAT INDEX
  VSB - VISIBILITY




USA.gov is the U.S. government's official web portal to all federal, state and local government web resources and services.